Location: Cook
(40.4000°S, 175.3667°E)
Time: 05:32:45
(UTC+00:00)

Daily predictions for brighter satellites

Satellite Brightness Start Highest point End
(mag) Time Altitude Azimuth Time Altitude Azimuth Time Altitude Azimuth
CZ-4 R/B 2.0 07:51:00 10° SSE 07:55:00 39° E 07:58:56 10° NNE
Cosmos 1356 3.7 07:54:25 10° NNE 07:57:18 36° E 08:00:14 10° SSE
Cosmos 468 Rocket 4.2 07:55:20 10° NNW 08:00:30 79° WSW 08:05:47 10° SSE
Cosmos 1844 Rocket 2.7 07:58:14 10° N 08:03:47 66° ENE 08:09:26 10° SSE
Okean O Rocket 2.0 08:01:23 10° SSE 08:05:36 43° E 08:09:47 10° N
Cosmos 540 Rocket 3.5 08:00:45 10° NNW 08:05:53 88° WSW 08:11:04 10° SSE
ATLAS 3B R/B 4.5 08:03:58 10° S 08:07:57 16° SSE 08:11:50 10° ESE
YAOGAN 1 2.6 08:03:32 10° SSE 08:07:57 89° WSW 08:12:19 10° NNW
Cosmos 1763 Rocket 4.4 08:03:15 10° NW 08:08:13 53° WSW 08:13:17 10° S
MOS 1-B 4.4 08:03:14 10° SSE 08:09:03 65° ENE 08:14:49 10° N
Cosmos 1812 Rocket 3.6 08:09:31 10° N 08:13:50 63° E 08:18:12 10° SSE
PSLV R/B 4.3 08:10:53 10° S 08:14:36 61° WSW 08:18:14 10° NNW
OAO 2 Rocket 4.4 08:10:46 10° NW 08:15:16 28° NNE 08:19:27 11° ENE
Nadezhda 1 Rocket 4.5 08:09:15 10° SSW 08:15:40 69° W 08:22:02 10° N
Okean-O 4.0 08:14:06 10° SE 08:17:28 21° E 08:20:38 11° NE
Cosmos 1862 3.3 08:13:54 10° S 08:17:54 85° W 08:21:51 10° N
USA 186 2.6 08:17:01 10° SSE 08:20:08 34° E 08:23:14 10° NNE
Tiangong -0.7 08:18:56 10° NNW 08:21:25 21° NNE 08:22:52 16° ENE
ASTRO E2 4.3 08:21:16 10° NNW 08:23:56 18° N 08:25:36 14° NE
Cosmos 841 Rocket 3.4 08:21:18 10° NNW 08:26:29 82° ENE 08:31:42 10° SSE
HJ-1C 3.9 08:24:50 10° S 08:27:24 46° WSW 08:29:55 10° NNW
Cosmos 2181 Rocket 4.2 08:26:10 10° S 08:32:35 57° E 08:38:52 10° NNE
Resurs 1-3 4.1 08:30:50 10° SSE 08:35:03 40° E 08:39:12 10° NNE
Cosmos 1844 3.9 08:32:27 10° NNW 08:38:06 78° WSW 08:43:45 10° SSE
Cosmos 1937 Rocket 3.5 08:33:11 10° SSW 08:38:36 83° ESE 08:43:25 13° NNE
Cosmos 1709 Rocket 4.5 08:32:56 10° NNW 08:39:04 66° W 08:45:23 10° S
SJ-6B 2.6 08:35:55 10° SSE 08:39:41 68° E 08:43:27 10° N
H-2A R/B 2.3 08:36:47 14° NNE 08:40:32 60° ESE 08:44:58 10° S
Cosmos 1833 Rocket 4.4 08:39:27 10° S 08:43:25 19° SE 08:46:25 13° E
SeaSat 1 3.1 08:41:10 19° ENE 08:44:19 42° ESE 08:49:00 10° SSW
Cosmos 2221 3.3 08:43:41 20° NE 08:45:51 32° E 08:49:46 10° SSE
RESURS DK-1 2.9 08:43:22 10° NW 08:47:28 63° WSW 08:51:39 10° SSE
H-2A ROCKET BODY 3.2 08:46:59 10° WNW 08:50:03 14° NNW 08:51:26 12° N
Cosmos 2278 Rocket 3.6 08:51:38 17° E 08:51:38 17° E 08:55:00 10° ESE
IGS 5A 3.9 08:47:23 10° S 08:51:35 66° WSW 08:55:43 10° NNW
Cosmos 1933 4.2 08:52:05 26° ENE 08:53:09 30° E 08:56:46 10° SSE
CZ-4C R/B 1.9 08:50:57 10° SSW 08:56:17 64° SE 08:58:37 28° NE
Landsat 7 3.7 08:53:46 10° SSE 08:58:35 78° ENE 09:03:19 10° N
Cosmos 2074 Rocket 4.0 08:53:30 10° N 08:59:44 65° E 09:05:59 10° SSE
SEDSat Delta rocket 4.5 08:55:01 10° WNW 09:00:45 35° N 09:03:06 26° NE
Cosmos 1500 3.1 08:58:31 10° S 09:02:20 63° E 09:03:46 34° NNE
Cosmos 2184 Rocket 4.0 08:56:41 10° N 09:02:47 66° E 09:08:59 10° SSE
Cosmos 1782 3.4 09:02:19 33° ENE 09:02:56 35° E 09:06:37 10° SSE
Okean 3 Rocket 4.2 09:00:01 10° S 09:04:13 38° ESE 09:05:28 32° ENE
Cosmos 2208 Rocket 4.5 09:05:04 24° NNE 09:07:51 41° ENE 09:12:58 10° SSE
Meteor 1-20 Rocket 4.3 09:02:21 10° S 09:08:12 72° E 09:11:48 24° NNE
Cosmos 1766 Rocket 3.6 09:03:59 10° S 09:08:30 62° E 09:10:20 33° NNE
Cosmos 371 Rocket 3.5 09:06:23 10° SSW 09:11:14 71° WNW 09:14:06 24° N
Meteor 1-4 Rocket 2.5 09:08:25 10° S 09:11:52 57° E 09:12:19 52° ENE
Cosmos 1570 Rocket 4.0 09:09:26 11° N 09:14:23 61° ENE 09:19:36 10° SSE
ATLAS 2AS CENTAUR R/B 2.8 09:08:58 10° NW 09:15:24 73° SW 09:22:09 10° SSE
Cosmos 2154 Rocket 4.0 09:10:57 18° NNE 09:15:34 62° E 09:21:45 10° SSE
Cosmos 1346 Rocket 2.8 09:22:10 29° NNW 09:24:08 84° W 09:28:12 10° S
Resurs 01 Rocket 1.5 09:22:28 10° SSE 09:26:57 66° E 09:28:10 45° NNE
BREEZE-M DEB (TANK) 4.1 09:25:48 10° WNW 09:29:28 66° SSW 09:41:51 10° ESE
CZ-4 R/B 4.4 09:26:42 10° SSW 09:29:32 18° WSW 09:32:22 10° WNW
Cosmos 1812 2.5 09:29:17 57° N 09:30:01 89° E 09:33:54 10° S
USA 305 3.6 09:26:19 10° SW 09:30:10 39° SSE 09:30:56 35° ESE
Cosmos 1441 Rocket 3.5 09:30:02 31° NNW 09:31:42 66° W 09:35:30 10° S
Meteor 1-25 Rocket 4.2 09:27:15 10° SSW 09:32:54 82° W 09:35:36 32° N
Cosmos 1295 Rocket 4.4 09:30:01 19° N 09:34:41 87° E 09:40:59 10° S
Meteor 1-26 Rocket 4.2 09:35:36 34° N 09:38:11 71° E 09:44:11 10° SSE
H-2A R/B 3.6 09:37:08 10° SSE 09:39:42 29° ESE 09:39:42 29° ESE
Okean O Rocket 4.5 09:38:40 10° SSW 09:41:35 18° WSW 09:44:28 10° WNW
SPOT 1/Viking Rocket 3.6 09:39:12 10° SSE 09:44:30 83° WSW 09:47:19 28° NNW
CZ-4B R/B 2.9 09:48:54 29° SW 09:48:54 29° SW 09:50:34 10° SSW
IRS-1C Rocket 4.5 09:44:01 10° S 09:49:19 64° WSW 09:53:21 17° NNW
Okean-O 4.1 09:49:53 10° S 09:54:00 36° WSW 09:58:04 10° NW
MetOp-A 3.6 09:50:07 10° SSE 09:53:29 58° SSE 09:53:29 58° SSE
Cosmos 1666 3.8 09:54:12 10° SSW 09:57:45 37° W 09:58:09 36° WNW
Tiangong 0.7 09:54:45 10° WNW 09:55:08 13° WNW 09:55:08 13° WNW
Ariane Rocket 3.3 09:54:18 10° SSE 09:58:46 50° ESE 09:58:46 50° ESE
OAO 2 Rocket 4.1 09:54:27 10° WNW 09:58:24 40° NNW 09:58:24 40° NNW
ATLAS 3B R/B 2.6 09:53:34 10° SSW 10:00:00 63° SE 10:01:25 50° ENE
Meteor 1-14 Rocket 4.4 09:55:57 10° S 10:01:34 53° ESE 10:01:58 52° E
ADEOS Rocket 4.4 10:02:14 10° SE 10:07:38 27° E 10:07:38 27° E
Terra 3.5 10:04:19 10° SE 10:06:23 21° SE 10:06:23 21° SE
Cosmos 1125 Rocket 3.3 10:04:11 10° SSW 10:09:31 82° ESE 10:09:46 79° ENE
USA 307 3.7 10:10:37 10° SW 10:13:38 44° SSW 10:13:38 44° SSW
CARTOSAT-1 4.0 10:11:27 10° S 10:15:46 58° WSW 10:15:55 58° W
ERS-1 Rocket 4.0 10:12:25 10° SSE 10:15:44 34° SE 10:15:44 34° SE
USA 245 4.3 10:13:16 10° SSE 10:19:37 72° ENE 10:20:02 70° NE
USA 306 3.8 10:15:37 10° SW 10:18:23 43° SW 10:18:23 43° SW
Meteor 2-6 Rocket 4.2 10:19:21 74° NE 10:19:39 76° E 10:25:33 10° SSE
SL-8 Rocket 3.8 10:19:22 69° NE 10:20:00 75° E 10:26:17 10° S
SeaSat 1 4.0 10:20:56 24° NW 10:21:54 26° WNW 10:26:01 10° SW
Cosmos 1743 Rocket 4.1 10:18:25 10° S 10:22:06 57° S 10:22:06 57° S
IRS-1A Rocket 4.4 10:17:45 10° S 10:23:19 70° WSW 10:24:35 52° NW
NOSS 2-3 (E) 4.2 10:16:12 10° SW 10:23:41 90° WNW 10:24:13 76° NNE
Cosmos 2341 Rocket 3.9 10:22:46 61° N 10:23:59 88° W 10:30:24 10° S
Cosmos 2298 Rocket 4.0 10:18:51 10° SSW 10:24:09 87° SSW 10:24:09 87° SSW
COSMOS 2406 3.6 10:18:51 10° SSW 10:24:26 49° ESE 10:24:28 49° ESE
Cosmos 2082 Rocket 2.9 10:20:15 10° S 10:25:41 42° ESE 10:25:41 42° ESE
Cosmos 1833 Rocket 2.7 10:22:15 10° SSW 10:27:54 69° WNW 10:28:06 69° NW
BREEZE-M DEB (TANK) 4.2 10:27:12 10° WNW 10:31:11 41° W 10:31:11 41° W
Cosmos 2278 Rocket 2.5 10:33:24 47° WNW 10:34:50 63° WSW 10:40:32 10° SSE
Cosmos 1727 Rocket 4.5 10:34:09 10° S 10:39:44 46° ESE 10:39:44 46° ESE
SPOT 3 Rocket 3.8 10:34:54 10° SSE 10:39:23 66° SSE 10:39:23 66° SSE
CZ-4C R/B 4.2 10:41:44 10° W 10:43:42 12° WNW 10:43:46 12° WNW
Meteor 1-10 Rocket 4.3 10:48:44 75° SSE 10:48:44 75° SSE 10:54:11 10° S
Cosmos 1943 Rocket 3.2 10:50:34 36° SE 10:50:34 36° SE 10:53:54 10° SSE
Cosmos 1821 Rocket 4.4 10:52:04 51° ESE 10:52:04 51° ESE 10:57:13 10° SSE
SPOT 5 3.4 10:47:04 10° S 10:52:05 65° SW 10:52:05 65° SW
Lacrosse 5 rocket 4.0 11:09:32 16° SE 11:09:32 16° SE 11:10:28 10° SE
NOSS 3-1 (C) 3.8 11:09:39 10° SW 11:14:33 53° WSW 11:14:33 53° WSW
USA 229 DEB 4.1 11:19:14 10° SSW 11:25:43 47° SE 11:25:43 47° SE
USA 229 4.2 11:19:17 10° SSW 11:25:46 47° SE 11:25:49 47° SE
USA 215 3.8 11:30:17 10° SE 11:34:52 48° ESE 11:34:52 48° ESE
Terra 3.6 11:41:54 10° S 11:45:08 27° SW 11:45:08 27° SW
ATLAS 3B R/B 4.2 11:45:18 10° WSW 11:48:39 21° W 11:48:39 21° W
NOSS 3-1 (A) 4.3 11:48:04 10° SW 11:52:14 42° SW 11:52:14 42° SW
